,,,PA_Meas_PMT16A,,PR_Meas_QMR101_102,,RH_Meas_QMH101,,SR_Meas_QMS101,,TA_Meas_QMH101,,GenWind,,GenWind,
date,time,status,PA,status,PR,status,RH,status,SR,status,TA,status,DirAvg,status,SpdAvg,
2012-05-28, 00:00:04,VALID,1004.2,VALID,0,VALID,93.2554,VALID,0.0815089,VALID,23.5248,VALID,2,VALID,0,
2012-05-28, 00:01:04,VALID,1004.18,VALID,0,VALID,93.3012,VALID,0,VALID,23.546,VALID,2,VALID,0,
2012-05-28, 00:02:04,VALID,1004.17,VALID,0,VALID,93.3317,VALID,0,VALID,23.5266,VALID,2,VALID,0,
2012-05-28, 00:03:04,VALID,1004.17,VALID,0,VALID,93.347,VALID,0,VALID,23.546,VALID,2,VALID,0,
2012-05-28, 00:04:04,VALID,1004.17,VALID,0,VALID,93.3851,VALID,0,VALID,23.5655,VALID,2,VALID,0,
2012-05-28, 00:05:04,VALID,1004.16,VALID,0,VALID,93.408,VALID,0,VALID,23.546,VALID,2,VALID,0,
2012-05-28, 00:06:04,VALID,1004.14,VALID,0,VALID,93.4614,VALID,0,VALID,23.5655,VALID,2,VALID,0,
2012-05-28, 00:07:04,VALID,1004.17,VALID,0,VALID,93.4614,VALID,0,VALID,23.5655,VALID,2,VALID,0,
2012-05-28, 00:08:04,VALID,1004.18,VALID,0,VALID,93.4919,VALID,0,VALID,23.5655,VALID,2,VALID,0,
2012-05-28, 00:09:04,VALID,1004.21,VALID,0,VALID,93.5072,VALID,0,VALID,23.5637,VALID,2,VALID,0,
2012-05-28, 00:10:04,VALID,1004.2,VALID,0,VALID,93.5072,VALID,0,VALID,23.585,VALID,2,VALID,0,
2012-05-28, 00:11:04,VALID,1004.22,VALID,0,VALID,93.5377,VALID,0,VALID,23.585,VALID,2,VALID,0,
2012-05-28, 00:12:04,VALID,1004.24,VALID,0,VALID,93.4996,VALID,0,VALID,23.585,VALID,2,VALID,0,
2012-05-28, 00:13:04,VALID,1004.22,VALID,0,VALID,93.5224,VALID,0.0815089,VALID,23.585,VALID,2,VALID,0,
2012-05-28, 00:14:04,VALID,1004.22,VALID,0,VALID,93.5682,VALID,0.0815089,VALID,23.585,VALID,2,VALID,0,
2012-05-28, 00:15:04,VALID,1004.2,VALID,0,VALID,93.5758,VALID,0,VALID,23.5637,VALID,2,VALID,0,
2012-05-28, 00:16:04,VALID,1004.22,VALID,0,VALID,93.5911,VALID,0,VALID,23.6257,VALID,2,VALID,0,
2012-05-28, 00:17:04,VALID,1004.19,VALID,0,VALID,93.614,VALID,0.0815089,VALID,23.5832,VALID,2,VALID,0,
2012-05-28, 00:18:04,VALID,1004.18,VALID,0,VALID,93.6826,VALID,0,VALID,23.6239,VALID,2,VALID,0,
2012-05-28, 00:19:04,VALID,1004.17,VALID,0,VALID,93.6903,VALID,0.0815089,VALID,23.6239,VALID,2,VALID,0,
2012-05-28, 00:20:04,VALID,1004.16,VALID,0,VALID,93.6979,VALID,0,VALID,23.6026,VALID,2,VALID,0,
2012-05-28, 00:21:04,VALID,1004.14,VALID,0,VALID,93.7055,VALID,0.0815089,VALID,23.6434,VALID,2,VALID,0,
2012-05-28, 00:22:04,VALID,1004.12,VALID,0,VALID,93.7284,VALID,0,VALID,23.6434,VALID,2,VALID,0,
2012-05-28, 00:23:04,VALID,1004.12,VALID,0,VALID,93.6903,VALID,0,VALID,23.6628,VALID,2,VALID,0,
2012-05-28, 00:24:04,VALID,1004.12,VALID,0,VALID,93.6521,VALID,0,VALID,23.6452,VALID,2,VALID,0,
2012-05-28, 00:25:04,VALID,1004.06,VALID,0,VALID,93.6598,VALID,0,VALID,23.6452,VALID,2,VALID,0,
2012-05-28, 00:26:04,VALID,1004.07,VALID,0,VALID,93.675,VALID,0,VALID,23.6452,VALID,2,VALID,0,
2012-05-28, 00:27:04,VALID,1004.04,VALID,0,VALID,93.6598,VALID,0,VALID,23.6452,VALID,2,VALID,0,
2012-05-28, 00:28:04,VALID,1004.03,VALID,0,VALID,93.6903,VALID,0,VALID,23.6452,VALID,2,VALID,0,
2012-05-28, 00:29:04,VALID,1004.06,VALID,0,VALID,93.7132,VALID,0,VALID,23.6452,VALID,2,VALID,0,
2012-05-28, 00:30:04,VALID,1004.03,VALID,0,VALID,93.7055,VALID,0,VALID,23.6452,VALID,2,VALID,0,
2012-05-28, 00:31:04,VALID,1004.03,VALID,0,VALID,93.6064,VALID,0,VALID,23.6257,VALID,2,VALID,0,
2012-05-28, 00:32:04,VALID,1003.99,VALID,0,VALID,93.5911,VALID,0,VALID,23.6257,VALID,2,VALID,0,
2012-05-28, 00:33:04,VALID,1003.98,VALID,0,VALID,93.6292,VALID,0,VALID,23.6062,VALID,2,VALID,0,
2012-05-28, 00:34:04,VALID,1003.99,VALID,0,VALID,93.6369,VALID,0,VALID,23.5868,VALID,2,VALID,0,
2012-05-28, 00:35:04,VALID,1003.95,VALID,0,VALID,93.5911,VALID,0,VALID,23.608,VALID,2,VALID,0,
2012-05-28, 00:36:04,VALID,1003.95,VALID,0,VALID,93.6598,VALID,0,VALID,23.5868,VALID,2,VALID,0,
2012-05-28, 00:37:04,VALID,1003.95,VALID,0,VALID,93.7361,VALID,0,VALID,23.5655,VALID,2,VALID,0,
2012-05-28, 00:38:04,VALID,1003.91,VALID,0,VALID,93.8123,VALID,0,VALID,23.6257,VALID,2,VALID,0,
2012-05-28, 00:39:04,VALID,1003.91,VALID,0,VALID,93.7589,VALID,0,VALID,23.6452,VALID,2,VALID,0,
2012-05-28, 00:40:04,VALID,1003.87,VALID,0,VALID,93.7589,VALID,0,VALID,23.6239,VALID,2,VALID,0,
2012-05-28, 00:41:04,VALID,1003.83,VALID,0,VALID,93.7589,VALID,0,VALID,23.6239,VALID,2,VALID,0,
2012-05-28, 00:42:04,VALID,1003.84,VALID,0,VALID,93.8276,VALID,0,VALID,23.6628,VALID,2,VALID,0,
2012-05-28, 00:43:04,VALID,1003.83,VALID,0,VALID,93.8276,VALID,0,VALID,23.6434,VALID,2,VALID,0,
2012-05-28, 00:44:04,VALID,1003.8,VALID,0,VALID,93.8276,VALID,0,VALID,23.6628,VALID,2,VALID,0,
2012-05-28, 00:45:04,VALID,1003.82,VALID,0,VALID,93.8276,VALID,0,VALID,23.6823,VALID,2,VALID,0,
2012-05-28, 00:46:04,VALID,1003.8,VALID,0,VALID,93.8352,VALID,0,VALID,23.7017,VALID,2,VALID,0,
2012-05-28, 00:47:04,VALID,1003.78,VALID,0,VALID,93.7895,VALID,0.0815089,VALID,23.7017,VALID,2,VALID,0,
2012-05-28, 00:48:04,VALID,1003.76,VALID,0,VALID,93.6674,VALID,0,VALID,23.7017,VALID,2,VALID,0,
2012-05-28, 00:49:04,VALID,1003.78,VALID,0,VALID,93.675,VALID,0.0815089,VALID,23.6823,VALID,2,VALID,0,
2012-05-28, 00:50:04,VALID,1003.77,VALID,0,VALID,93.7055,VALID,0,VALID,23.7017,VALID,2,VALID,0,
2012-05-28, 00:51:04,VALID,1003.76,VALID,0,VALID,93.7818,VALID,0,VALID,23.7212,VALID,2,VALID,0,
2012-05-28, 00:52:05,VALID,1003.73,VALID,0,VALID,93.7971,VALID,0,VALID,23.7212,VALID,1,VALID,0,
2012-05-28, 00:53:05,VALID,1003.69,VALID,0,VALID,93.7208,VALID,0,VALID,23.7407,VALID,1,VALID,0,
2012-05-28, 00:54:05,VALID,1003.7,VALID,0,VALID,93.6674,VALID,0,VALID,23.7212,VALID,1,VALID,0,
2012-05-28, 00:55:05,VALID,1003.69,VALID,0,VALID,93.5606,VALID,0,VALID,23.7017,VALID,1,VALID,0,
2012-05-28, 00:56:05,VALID,1003.65,VALID,0,VALID,93.5682,VALID,0,VALID,23.7035,VALID,1,VALID,0,
2012-05-28, 00:57:05,VALID,1003.63,VALID,0,VALID,93.5911,VALID,0,VALID,23.6823,VALID,1,VALID,0,
2012-05-28, 00:58:05,VALID,1003.61,VALID,0,VALID,93.553,VALID,0,VALID,23.6628,VALID,1,VALID,0,
2012-05-28, 00:59:05,VALID,1003.6,VALID,0,VALID,93.5301,VALID,0,VALID,23.6646,VALID,1,VALID,0,
2012-05-28, 01:00:05,VALID,1003.62,VALID,0,VALID,93.553,VALID,0,VALID,23.6239,VALID,1,VALID,0,
2012-05-28, 01:01:05,VALID,1003.58,VALID,0,VALID,93.675,VALID,0,VALID,23.6452,VALID,1,VALID,0,
2012-05-28, 01:02:05,VALID,1003.6,VALID,0,VALID,93.6064,VALID,0,VALID,23.6452,VALID,1,VALID,0,
2012-05-28, 01:03:05,VALID,1003.63,VALID,0,VALID,93.6903,VALID,0,VALID,23.6239,VALID,1,VALID,0,
2012-05-28, 01:04:05,VALID,1003.58,VALID,0,VALID,93.8047,VALID,0,VALID,23.6628,VALID,1,VALID,0,
2012-05-28, 01:05:05,VALID,1003.6,VALID,0,VALID,93.8657,VALID,0,VALID,23.6823,VALID,1,VALID,0,
2012-05-28, 01:06:05,VALID,1003.58,VALID,0,VALID,93.8429,VALID,0,VALID,23.6823,VALID,1,VALID,0,
2012-05-28, 01:07:05,VALID,1003.6,VALID,0,VALID,93.82,VALID,0,VALID,23.7035,VALID,1,VALID,0,
2012-05-28, 01:08:05,VALID,1003.58,VALID,0,VALID,93.8352,VALID,0,VALID,23.6823,VALID,1,VALID,0,
2012-05-28, 01:09:05,VALID,1003.57,VALID,0,VALID,93.82,VALID,0,VALID,23.7035,VALID,1,VALID,0,
2012-05-28, 01:10:05,VALID,1003.55,VALID,0,VALID,93.9344,VALID,0,VALID,23.7017,VALID,1,VALID,0,
2012-05-28, 01:11:05,VALID,1003.52,VALID,0,VALID,93.9954,VALID,0,VALID,23.7212,VALID,1,VALID,0,
2012-05-28, 01:12:05,VALID,1003.5,VALID,0,VALID,93.9497,VALID,0,VALID,23.7212,VALID,1,VALID,0,
2012-05-28, 01:13:05,VALID,1003.5,VALID,0,VALID,93.9115,VALID,0,VALID,23.7425,VALID,1,VALID,0,
2012-05-28, 01:14:05,VALID,1003.49,VALID,0,VALID,93.9497,VALID,0,VALID,23.7212,VALID,1,VALID,0,
2012-05-28, 01:15:05,VALID,1003.5,VALID,0,VALID,93.9649,VALID,0,VALID,23.7212,VALID,1,VALID,0,
2012-05-28, 01:16:05,VALID,1003.49,VALID,0,VALID,93.9649,VALID,0,VALID,23.7,VALID,1,VALID,0,
2012-05-28, 01:17:05,VALID,1003.5,VALID,0,VALID,93.942,VALID,0,VALID,23.7212,VALID,1,VALID,0,
2012-05-28, 01:18:05,VALID,1003.45,VALID,0,VALID,93.9954,VALID,0,VALID,23.7407,VALID,1,VALID,0,
2012-05-28, 01:19:05,VALID,1003.48,VALID,0,VALID,94.0336,VALID,0,VALID,23.7619,VALID,1,VALID,0,
2012-05-28, 01:20:05,VALID,1003.49,VALID,0,VALID,94.0412,VALID,0,VALID,23.7194,VALID,1,VALID,0,
2012-05-28, 01:21:05,VALID,1003.43,VALID,0,VALID,94.0641,VALID,0,VALID,23.7619,VALID,1,VALID,0,
2012-05-28, 01:22:05,VALID,1003.41,VALID,0,VALID,94.0183,VALID,0,VALID,23.7407,VALID,1,VALID,0,
2012-05-28, 01:23:05,VALID,1003.41,VALID,0,VALID,93.9954,VALID,0,VALID,23.7407,VALID,1,VALID,0,
2012-05-28, 01:24:05,VALID,1003.41,VALID,0,VALID,93.9878,VALID,0,VALID,23.7407,VALID,1,VALID,0,
2012-05-28, 01:25:05,VALID,1003.38,VALID,0,VALID,93.9191,VALID,0,VALID,23.7017,VALID,1,VALID,0,
2012-05-28, 01:26:05,VALID,1003.33,VALID,0,VALID,93.9039,VALID,0,VALID,23.7017,VALID,1,VALID,0,
2012-05-28, 01:27:05,VALID,1003.32,VALID,0,VALID,93.9039,VALID,0,VALID,23.7017,VALID,360,VALID,0,
2012-05-28, 01:28:05,VALID,1003.3,VALID,0,VALID,93.8886,VALID,0,VALID,23.7017,VALID,360,VALID,0,
2012-05-28, 01:29:05,VALID,1003.3,VALID,0,VALID,93.82,VALID,0,VALID,23.7212,VALID,360,VALID,0,
2012-05-28, 01:30:05,VALID,1003.27,VALID,0,VALID,93.7666,VALID,0,VALID,23.7212,VALID,360,VALID,0,
2012-05-28, 01:31:05,VALID,1003.26,VALID,0,VALID,93.7132,VALID,0,VALID,23.7425,VALID,360,VALID,0,
2012-05-28, 01:32:05,VALID,1003.23,VALID,0,VALID,93.6216,VALID,0,VALID,23.7212,VALID,360,VALID,0,
2012-05-28, 01:33:05,VALID,1003.23,VALID,0,VALID,93.5377,VALID,0,VALID,23.7212,VALID,360,VALID,0,
2012-05-28, 01:34:05,VALID,1003.2,VALID,0,VALID,93.469,VALID,0,VALID,23.7425,VALID,360,VALID,0,
2012-05-28, 01:35:05,VALID,1003.22,VALID,0,VALID,93.469,VALID,0,VALID,23.7407,VALID,360,VALID,0,
2012-05-28, 01:36:05,VALID,1003.22,VALID,0,VALID,93.4156,VALID,0,VALID,23.7619,VALID,360,VALID,0,
2012-05-28, 01:37:05,VALID,1003.19,VALID,0,VALID,93.3317,VALID,0,VALID,23.7407,VALID,360,VALID,0,
2012-05-28, 01:38:05,VALID,1003.17,VALID,0,VALID,93.2173,VALID,0,VALID,23.7407,VALID,360,VALID,0,
2012-05-28, 01:39:05,VALID,1003.17,VALID,0,VALID,93.1639,VALID,0,VALID,23.7407,VALID,360,VALID,0,
2012-05-28, 01:40:05,VALID,1003.16,VALID,0,VALID,93.0876,VALID,0,VALID,23.7619,VALID,360,VALID,0,
2012-05-28, 01:41:05,VALID,1003.14,VALID,0,VALID,92.9884,VALID,0,VALID,23.7619,VALID,360,VALID,0,
2012-05-28, 01:42:05,VALID,1003.15,VALID,0,VALID,92.9274,VALID,0,VALID,23.7601,VALID,360,VALID,0,
2012-05-28, 01:43:05,VALID,1003.14,VALID,0,VALID,92.8511,VALID,0,VALID,23.7407,VALID,360,VALID,0,
2012-05-28, 01:44:05,VALID,1003.16,VALID,0,VALID,92.8206,VALID,0,VALID,23.7212,VALID,360,VALID,0,
2012-05-28, 01:45:05,VALID,1003.14,VALID,0,VALID,92.7901,VALID,0,VALID,23.7407,VALID,360,VALID,0,
2012-05-28, 01:46:05,VALID,1003.15,VALID,0,VALID,92.729,VALID,0,VALID,23.7407,VALID,360,VALID,0,
2012-05-28, 01:47:05,VALID,1003.14,VALID,0,VALID,92.6756,VALID,0,VALID,23.7194,VALID,360,VALID,0,
2012-05-28, 01:48:05,VALID,1003.17,VALID,0,VALID,92.5536,VALID,0,VALID,23.7601,VALID,360,VALID,0,
2012-05-28, 01:49:05,VALID,1003.14,VALID,0,VALID,92.4773,VALID,0,VALID,23.7601,VALID,360,VALID,0,
2012-05-28, 01:50:05,VALID,1003.17,VALID,0,VALID,92.4315,VALID,0,VALID,23.7796,VALID,360,VALID,0,
2012-05-28, 01:51:05,VALID,1003.14,VALID,0,VALID,92.3781,VALID,0,VALID,23.7796,VALID,360,VALID,0,
2012-05-28, 01:52:05,VALID,1003.15,VALID,0,VALID,92.3323,VALID,0,VALID,23.7796,VALID,359,VALID,0,
2012-05-28, 01:53:05,VALID,1003.15,VALID,0,VALID,92.3095,VALID,0,VALID,23.7601,VALID,359,VALID,0,
2012-05-28, 01:54:05,VALID,1003.17,VALID,0,VALID,92.3781,VALID,0,VALID,23.7796,VALID,359,VALID,0,
2012-05-28, 01:55:05,VALID,1003.14,VALID,0,VALID,92.4468,VALID,0.0815089,VALID,23.7796,VALID,354,VALID,0,
2012-05-28, 01:56:05,VALID,1003.17,VALID,0,VALID,92.4315,VALID,0,VALID,23.7796,VALID,348,VALID,0,
2012-05-28, 01:57:05,VALID,1003.15,VALID,0,VALID,92.4849,VALID,0,VALID,23.7601,VALID,348,VALID,0,
2012-05-28, 01:58:05,VALID,1003.15,VALID,0,VALID,92.5536,VALID,0,VALID,23.7601,VALID,348,VALID,0,
2012-05-28, 01:59:05,VALID,1003.16,VALID,0,VALID,92.6222,VALID,0,VALID,23.7619,VALID,348,VALID,0,
2012-05-28, 02:00:05,VALID,1003.14,VALID,0,VALID,92.6299,VALID,0,VALID,23.7619,VALID,348,VALID,0,
2012-05-28, 02:01:05,VALID,1003.17,VALID,0,VALID,92.6909,VALID,0,VALID,23.7619,VALID,348,VALID,0,
2012-05-28, 02:02:05,VALID,1003.14,VALID,0,VALID,92.7138,VALID,0,VALID,23.7425,VALID,348,VALID,0,
2012-05-28, 02:03:05,VALID,1003.16,VALID,0,VALID,92.7519,VALID,0,VALID,23.7212,VALID,348,VALID,0,
2012-05-28, 02:04:05,VALID,1003.16,VALID,0,VALID,92.7062,VALID,0,VALID,23.7017,VALID,348,VALID,0,
2012-05-28, 02:05:05,VALID,1003.18,VALID,0,VALID,92.6222,VALID,0,VALID,23.7017,VALID,348,VALID,0,
2012-05-28, 02:06:05,VALID,1003.15,VALID,0,VALID,92.6604,VALID,0,VALID,23.7017,VALID,348,VALID,0,
2012-05-28, 02:07:05,VALID,1003.13,VALID,0,VALID,92.668,VALID,0,VALID,23.6823,VALID,348,VALID,0,
2012-05-28, 02:08:05,VALID,1003.12,VALID,0,VALID,92.6528,VALID,0.0815089,VALID,23.7017,VALID,348,VALID,0,
2012-05-28, 02:09:05,VALID,1003.13,VALID,0,VALID,92.6604,VALID,0,VALID,23.6823,VALID,348,VALID,0,
2012-05-28, 02:10:05,VALID,1003.13,VALID,0,VALID,92.607,VALID,0.0815089,VALID,23.6823,VALID,348,VALID,0,
2012-05-28, 02:11:05,VALID,1003.13,VALID,0,VALID,92.607,VALID,0,VALID,23.6628,VALID,348,VALID,0,
2012-05-28, 02:12:05,VALID,1003.11,VALID,0,VALID,92.6756,VALID,0.0815089,VALID,23.6841,VALID,348,VALID,0,
2012-05-28, 02:13:05,VALID,1003.09,VALID,0,VALID,92.7519,VALID,0,VALID,23.6628,VALID,348,VALID,0,
2012-05-28, 02:14:05,VALID,1003.07,VALID,0,VALID,92.7519,VALID,0,VALID,23.6221,VALID,344,VALID,0,
2012-05-28, 02:15:05,VALID,1003.05,VALID,0,VALID,92.7367,VALID,0,VALID,23.6434,VALID,344,VALID,0,
2012-05-28, 02:16:05,VALID,1003.07,VALID,0,VALID,92.7824,VALID,0,VALID,23.6434,VALID,344,VALID,0,
2012-05-28, 02:17:05,VALID,1003.06,VALID,0,VALID,92.7824,VALID,0,VALID,23.6434,VALID,344,VALID,0,
2012-05-28, 02:18:05,VALID,1003.07,VALID,0,VALID,92.7901,VALID,0,VALID,23.6434,VALID,344,VALID,0,
2012-05-28, 02:19:05,VALID,1003.06,VALID,0,VALID,92.7214,VALID,0.0815089,VALID,23.6823,VALID,344,VALID,0,
2012-05-28, 02:20:05,VALID,1003.05,VALID,0,VALID,92.6833,VALID,0.0815089,VALID,23.661,VALID,344,VALID,0,
2012-05-28, 02:21:05,VALID,1003.05,VALID,0,VALID,92.668,VALID,0,VALID,23.7212,VALID,344,VALID,0,
2012-05-28, 02:22:05,VALID,1003.05,VALID,0,VALID,92.546,VALID,0,VALID,23.7407,VALID,344,VALID,0,
2012-05-28, 02:23:05,VALID,1003.02,VALID,0,VALID,92.3857,VALID,0.0815089,VALID,23.7407,VALID,344,VALID,0,
2012-05-28, 02:24:05,VALID,1003.06,VALID,0,VALID,92.3171,VALID,0,VALID,23.7814,VALID,344,VALID,0,
2012-05-28, 02:25:05,VALID,1003.03,VALID,0,VALID,92.2789,VALID,0,VALID,23.7619,VALID,342,VALID,0,
2012-05-28, 02:26:05,VALID,1003,VALID,0,VALID,92.2255,VALID,0,VALID,23.7796,VALID,342,VALID,0,
2012-05-28, 02:27:05,VALID,1002.97,VALID,0,VALID,92.1035,VALID,0,VALID,23.8009,VALID,341,VALID,0,
2012-05-28, 02:28:05,VALID,1002.99,VALID,0,VALID,91.9738,VALID,0,VALID,23.7991,VALID,341,VALID,0,
2012-05-28, 02:29:05,VALID,1002.96,VALID,0,VALID,91.9356,VALID,0,VALID,23.7991,VALID,341,VALID,0,
2012-05-28, 02:30:05,VALID,1002.93,VALID,0,VALID,91.9128,VALID,0,VALID,23.8398,VALID,341,VALID,0,
2012-05-28, 02:31:05,VALID,1002.94,VALID,0,VALID,91.8975,VALID,0,VALID,23.8398,VALID,341,VALID,0,
2012-05-28, 02:32:05,VALID,1002.91,VALID,0,VALID,91.8365,VALID,0,VALID,23.8203,VALID,341,VALID,0,
2012-05-28, 02:33:05,VALID,1002.89,VALID,0,VALID,91.8899,VALID,0,VALID,23.7796,VALID,341,VALID,0,
2012-05-28, 02:34:05,VALID,1002.89,VALID,0,VALID,91.9509,VALID,0,VALID,23.7601,VALID,341,VALID,0,
2012-05-28, 02:35:05,VALID,1002.86,VALID,0,VALID,92.0501,VALID,0,VALID,23.7212,VALID,343,VALID,0,
2012-05-28, 02:36:05,VALID,1002.85,VALID,0,VALID,92.2408,VALID,0,VALID,23.7212,VALID,358,VALID,0,
2012-05-28, 02:37:05,VALID,1002.85,VALID,0,VALID,92.401,VALID,0,VALID,23.7212,VALID,358,VALID,0,
2012-05-28, 02:38:05,VALID,1002.86,VALID,0,VALID,92.4925,VALID,0,VALID,23.7212,VALID,358,VALID,0,
2012-05-28, 02:39:05,VALID,1002.86,VALID,0,VALID,92.546,VALID,0,VALID,23.7017,VALID,358,VALID,0,
2012-05-28, 02:40:05,VALID,1002.87,VALID,0,VALID,92.5536,VALID,0,VALID,23.7017,VALID,358,VALID,0,
2012-05-28, 02:41:05,VALID,1002.86,VALID,0,VALID,92.7062,VALID,0,VALID,23.723,VALID,358,VALID,0,
2012-05-28, 02:42:05,VALID,1002.87,VALID,0,VALID,92.7214,VALID,0,VALID,23.6823,VALID,358,VALID,0,
2012-05-28, 02:43:05,VALID,1002.86,VALID,0,VALID,92.7214,VALID,0,VALID,23.7035,VALID,358,VALID,0,
2012-05-28, 02:44:05,VALID,1002.86,VALID,0,VALID,92.7748,VALID,0,VALID,23.7035,VALID,358,VALID,0,
2012-05-28, 02:45:05,VALID,1002.9,VALID,0,VALID,92.7824,VALID,0,VALID,23.7035,VALID,358,VALID,0,
2012-05-28, 02:46:05,VALID,1002.87,VALID,0,VALID,92.8053,VALID,0,VALID,23.6628,VALID,358,VALID,0,
2012-05-28, 02:47:05,VALID,1002.9,VALID,0,VALID,92.8587,VALID,0,VALID,23.6221,VALID,358,VALID,0,
2012-05-28, 02:48:05,VALID,1002.89,VALID,0,VALID,92.9732,VALID,0,VALID,23.6646,VALID,358,VALID,0,
2012-05-28, 02:49:05,VALID,1002.87,VALID,0,VALID,93.0113,VALID,0,VALID,23.6452,VALID,358,VALID,0,
2012-05-28, 02:50:05,VALID,1002.9,VALID,0,VALID,92.9732,VALID,0,VALID,23.6646,VALID,358,VALID,0,
2012-05-28, 02:51:05,VALID,1002.9,VALID,0,VALID,92.8664,VALID,0,VALID,23.6044,VALID,358,VALID,0,
2012-05-28, 02:52:05,VALID,1002.94,VALID,0,VALID,92.874,VALID,0,VALID,23.6044,VALID,358,VALID,0,
2012-05-28, 02:53:05,VALID,1002.9,VALID,0,VALID,92.9808,VALID,0,VALID,23.585,VALID,358,VALID,0,
2012-05-28, 02:54:05,VALID,1002.91,VALID,0,VALID,93.0647,VALID,0,VALID,23.6257,VALID,358,VALID,0,
2012-05-28, 02:55:05,VALID,1002.91,VALID,0,VALID,92.9884,VALID,0,VALID,23.6062,VALID,358,VALID,0,
2012-05-28, 02:56:05,VALID,1002.92,VALID,0,VALID,92.9503,VALID,0,VALID,23.5637,VALID,358,VALID,0,
2012-05-28, 02:57:05,VALID,1002.9,VALID,0,VALID,93.0037,VALID,0,VALID,23.5655,VALID,357,VALID,0,
2012-05-28, 02:58:05,VALID,1002.87,VALID,0,VALID,93.0342,VALID,0,VALID,23.5655,VALID,357,VALID,0,
2012-05-28, 02:59:05,VALID,1002.87,VALID,0,VALID,93.08,VALID,0,VALID,23.5868,VALID,357,VALID,0,
2012-05-28, 03:00:05,VALID,1002.87,VALID,0,VALID,93.1181,VALID,0,VALID,23.6062,VALID,357,VALID,0,
2012-05-28, 03:01:05,VALID,1002.89,VALID,0,VALID,93.0723,VALID,0,VALID,23.6062,VALID,357,VALID,0,
2012-05-28, 03:02:05,VALID,1002.9,VALID,0,VALID,93.0418,VALID,0,VALID,23.585,VALID,357,VALID,0,
2012-05-28, 03:03:05,VALID,1002.91,VALID,0,VALID,93.0571,VALID,0,VALID,23.5673,VALID,356,VALID,0,
2012-05-28, 03:04:05,VALID,1002.93,VALID,0,VALID,93.0723,VALID,0,VALID,23.546,VALID,350,VALID,0,
2012-05-28, 03:05:05,VALID,1002.92,VALID,0,VALID,93.0571,VALID,0,VALID,23.5868,VALID,350,VALID,0,
2012-05-28, 03:06:05,VALID,1002.93,VALID,0,VALID,93.0647,VALID,0,VALID,23.5655,VALID,350,VALID,0,
2012-05-28, 03:07:05,VALID,1002.93,VALID,0,VALID,92.9884,VALID,0,VALID,23.5868,VALID,350,VALID,0,
2012-05-28, 03:08:05,VALID,1002.92,VALID,0,VALID,93.0189,VALID,0,VALID,23.585,VALID,350,VALID,0,
2012-05-28, 03:09:05,VALID,1002.89,VALID,0,VALID,93.0266,VALID,0,VALID,23.6044,VALID,350,VALID,0,
2012-05-28, 03:10:05,VALID,1002.88,VALID,0,VALID,92.9274,VALID,0,VALID,23.6044,VALID,350,VALID,0,
2012-05-28, 03:11:05,VALID,1002.89,VALID,0,VALID,92.8664,VALID,0,VALID,23.6452,VALID,350,VALID,0,
2012-05-28, 03:12:05,VALID,1002.87,VALID,0,VALID,92.813,VALID,0,VALID,23.6044,VALID,350,VALID,0,
2012-05-28, 03:13:05,VALID,1002.88,VALID,0,VALID,92.7748,VALID,0,VALID,23.6257,VALID,350,VALID,0,
2012-05-28, 03:14:05,VALID,1002.88,VALID,0,VALID,92.8206,VALID,0,VALID,23.6257,VALID,350,VALID,0,
2012-05-28, 03:15:05,VALID,1002.87,VALID,0,VALID,92.9121,VALID,0,VALID,23.6044,VALID,350,VALID,0,
2012-05-28, 03:16:05,VALID,1002.89,VALID,0,VALID,92.9426,VALID,0,VALID,23.6257,VALID,350,VALID,0,
2012-05-28, 03:17:05,VALID,1002.91,VALID,0,VALID,92.9045,VALID,0,VALID,23.6452,VALID,352,VALID,0.344922,
2012-05-28, 03:18:05,VALID,1002.92,VALID,0,VALID,92.8053,VALID,0,VALID,23.6257,VALID,352,VALID,0.309375,
2012-05-28, 03:19:05,VALID,1002.93,VALID,0,VALID,92.8282,VALID,0,VALID,23.6257,VALID,352,VALID,0.238281,
2012-05-28, 03:20:05,VALID,1002.92,VALID,0,VALID,92.8587,VALID,0,VALID,23.6044,VALID,352,VALID,0.408203,
2012-05-28, 03:21:05,VALID,1002.92,VALID,0,VALID,92.813,VALID,0,VALID,23.6452,VALID,352,VALID,0.506641,
2012-05-28, 03:22:05,VALID,1002.92,VALID,0,VALID,92.8435,VALID,0,VALID,23.6239,VALID,352,VALID,0.438281,
2012-05-28, 03:23:05,VALID,1002.94,VALID,0,VALID,92.7901,VALID,0,VALID,23.6434,VALID,352,VALID,0,
2012-05-28, 03:24:05,VALID,1002.95,VALID,0,VALID,92.7443,VALID,0,VALID,23.6841,VALID,352,VALID,0,
2012-05-28, 03:25:05,VALID,1002.95,VALID,0,VALID,92.5612,VALID,0,VALID,23.6434,VALID,352,VALID,0,
2012-05-28, 03:26:05,VALID,1002.96,VALID,0,VALID,92.4925,VALID,0,VALID,23.6646,VALID,352,VALID,0,
2012-05-28, 03:27:04,VALID,1002.95,VALID,0,VALID,92.4849,VALID,0,VALID,23.6452,VALID,352,VALID,0,
2012-05-28, 03:28:04,VALID,1002.97,VALID,0,VALID,92.5078,VALID,0,VALID,23.6452,VALID,352,VALID,0,
2012-05-28, 03:29:04,VALID,1003,VALID,0,VALID,92.6375,VALID,0,VALID,23.6257,VALID,352,VALID,0,
2012-05-28, 03:30:04,VALID,1003.03,VALID,0,VALID,92.6833,VALID,0,VALID,23.6257,VALID,352,VALID,0,
2012-05-28, 03:31:04,VALID,1003.05,VALID,0,VALID,92.729,VALID,0,VALID,23.6257,VALID,352,VALID,0,
2012-05-28, 03:32:04,VALID,1003.07,VALID,0,VALID,92.7367,VALID,0,VALID,23.6257,VALID,352,VALID,0,
2012-05-28, 03:33:04,VALID,1003.06,VALID,0,VALID,92.7443,VALID,0,VALID,23.6257,VALID,352,VALID,0,
2012-05-28, 03:34:04,VALID,1003.06,VALID,0,VALID,92.7443,VALID,0,VALID,23.6062,VALID,357,VALID,0,
2012-05-28, 03:35:04,VALID,1003.07,VALID,0,VALID,92.8435,VALID,0,VALID,23.6062,VALID,358,VALID,0,
2012-05-28, 03:36:04,VALID,1003.09,VALID,0,VALID,92.9198,VALID,0,VALID,23.5868,VALID,4,VALID,0,
2012-05-28, 03:37:04,VALID,1003.09,VALID,0,VALID,93.0952,VALID,0,VALID,23.6062,VALID,4,VALID,0,
2012-05-28, 03:38:04,VALID,1003.11,VALID,0,VALID,93.1639,VALID,0,VALID,23.5868,VALID,4,VALID,0,
2012-05-28, 03:39:04,VALID,1003.13,VALID,0,VALID,93.1715,VALID,0,VALID,23.6239,VALID,4,VALID,0,
2012-05-28, 03:40:04,VALID,1003.14,VALID,0,VALID,93.1791,VALID,0,VALID,23.6239,VALID,4,VALID,0,
2012-05-28, 03:41:04,VALID,1003.15,VALID,0,VALID,93.2859,VALID,0,VALID,23.6434,VALID,2,VALID,0,
2012-05-28, 03:42:04,VALID,1003.13,VALID,0,VALID,93.2478,VALID,0,VALID,23.6628,VALID,2,VALID,0,
2012-05-28, 03:43:04,VALID,1003.15,VALID,0,VALID,93.141,VALID,0,VALID,23.6841,VALID,2,VALID,0,
2012-05-28, 03:44:04,VALID,1003.15,VALID,0,VALID,93.1486,VALID,0,VALID,23.6823,VALID,2,VALID,0,
2012-05-28, 03:45:04,VALID,1003.18,VALID,0,VALID,93.1181,VALID,0,VALID,23.6823,VALID,2,VALID,0,
2012-05-28, 03:46:04,VALID,1003.16,VALID,0,VALID,93.0189,VALID,0,VALID,23.6841,VALID,2,VALID,0,
2012-05-28, 03:47:04,VALID,1003.17,VALID,0,VALID,92.9426,VALID,0.0815089,VALID,23.661,VALID,2,VALID,0,
2012-05-28, 03:48:04,VALID,1003.16,VALID,0,VALID,92.8664,VALID,0,VALID,23.6823,VALID,2,VALID,0,
2012-05-28, 03:49:04,VALID,1003.2,VALID,0,VALID,92.8664,VALID,0,VALID,23.6628,VALID,2,VALID,0,
2012-05-28, 03:50:04,VALID,1003.17,VALID,0,VALID,92.935,VALID,0,VALID,23.6823,VALID,2,VALID,0,
2012-05-28, 03:51:04,VALID,1003.18,VALID,0,VALID,92.9426,VALID,0,VALID,23.661,VALID,2,VALID,0,
2012-05-28, 03:52:04,VALID,1003.23,VALID,0,VALID,92.9884,VALID,0.0815089,VALID,23.6823,VALID,2,VALID,0,
2012-05-28, 03:53:04,VALID,1003.24,VALID,0,VALID,93.0723,VALID,0,VALID,23.7017,VALID,2,VALID,0,
2012-05-28, 03:54:04,VALID,1003.23,VALID,0,VALID,93.0876,VALID,0.0815089,VALID,23.7017,VALID,2,VALID,0,
2012-05-28, 03:55:04,VALID,1003.22,VALID,0,VALID,93.1105,VALID,0.0815089,VALID,23.7,VALID,2,VALID,0,
2012-05-28, 03:56:04,VALID,1003.26,VALID,0,VALID,93.1029,VALID,0.0815089,VALID,23.6805,VALID,2,VALID,0,
2012-05-28, 03:57:04,VALID,1003.25,VALID,0,VALID,93.1029,VALID,0.0815089,VALID,23.7212,VALID,2,VALID,0,
2012-05-28, 03:58:04,VALID,1003.24,VALID,0,VALID,93.0189,VALID,0.0815089,VALID,23.7601,VALID,2,VALID,0,
2012-05-28, 03:59:04,VALID,1003.19,VALID,0,VALID,92.9579,VALID,0,VALID,23.7389,VALID,2,VALID,0,
2012-05-28, 04:00:04,VALID,1003.22,VALID,0,VALID,92.9655,VALID,0,VALID,23.7601,VALID,2,VALID,0,